logo
Rechercher aéroport 
image banner adimage banner adimage banner ad
image banner ad

CN67 - Rotorcraft Support Inc/Rsi

Situé à Fillmore, United States

ICAO - CN67, IATA -

Données fournies par Airmate  

Information générale

Coordonnées: N34°23'28" W118°55'59"
Élévation : 403 feet MSL.
 
Voir autres Aéroports à California

Données opérationnelles

Special qualification required
Heure actuelle UTC:
Heure actuelle locale:
Météo à : KCMA - Camarillo ( 25 km )
METAR: KCMA 261555Z 00000KT 7SM CLR 20/16 A2993 RMK AO2 SLP143 T02000156
TAF: KCMA 261125Z 2612/2712 VRB03KT P6SM SKC FM261900 24010KT P6SM SKC FM270400 VRB03KT P6SM SKC
Voir NOTAMs / SUP AIP / TFR affectant cet aéroport [VIEW]
Fréquences de communication: [VIEW]

Pistes:

Coordonnées de l'aéroport

Adresse: Fillmore United States

Vue satellite de CN67